Time,TemperatureF,DewpointF,PressureIn,WindDirection,WindDirectionDegrees,WindSpeedMPH,WindSpeedGustMPH,Humidity,HourlyPrecipIn,Conditions,Clouds,dailyrainin,SoftwareType,DateUTC
2013-01-15 00:02:00,11.0,7.0,-100.00,WSW,240,7.0,9.0,83,0.00,,,0.00,,2013-01-15 06:02:00,
2013-01-15 00:12:00,12.0,9.0,-100.00,WSW,245,7.0,9.0,83,0.00,,,0.00,,2013-01-15 06:12:00,
2013-01-15 00:22:00,11.0,7.0,-100.00,SW,235,6.0,9.0,83,0.00,,,0.00,,2013-01-15 06:22:00,
2013-01-15 00:32:00,11.0,7.0,-100.00,SW,235,6.0,7.0,84,0.00,,,0.00,,2013-01-15 06:32:00,
2013-01-15 00:42:00,10.0,7.0,-100.00,SW,230,8.0,9.0,84,0.00,,,0.00,,2013-01-15 06:42:00,
2013-01-15 00:52:00,11.0,7.0,-100.00,SW,225,8.0,10.0,85,0.00,,,0.00,,2013-01-15 06:52:00,
2013-01-15 01:02:00,11.0,7.0,-100.00,WSW,240,8.0,10.0,85,0.00,,,0.00,,2013-01-15 07:02:00,
2013-01-15 01:12:00,11.0,7.0,-100.00,WSW,240,8.0,10.0,85,0.00,,,0.00,,2013-01-15 07:12:00,
2013-01-15 01:22:00,11.0,7.0,-100.00,WSW,240,6.0,8.0,85,0.00,,,0.00,,2013-01-15 07:22:00,
2013-01-15 01:32:00,11.0,7.0,-100.00,WSW,240,7.0,9.0,85,0.00,,,0.00,,2013-01-15 07:32:00,
2013-01-15 01:42:00,11.0,7.0,-100.00,WSW,245,7.0,9.0,85,0.00,,,0.00,,2013-01-15 07:42:00,
2013-01-15 01:52:00,10.0,7.0,-100.00,WSW,245,4.0,6.0,85,0.00,,,0.00,,2013-01-15 07:52:00,
2013-01-15 02:02:00,9.0,5.0,-100.00,SW,235,6.0,6.0,85,0.00,,,0.00,,2013-01-15 08:02:00,
2013-01-15 02:12:00,8.0,5.0,-100.00,SW,225,7.0,7.0,86,0.00,,,0.00,,2013-01-15 08:12:00,
2013-01-15 02:22:00,8.0,5.0,-100.00,SW,225,6.0,7.0,86,0.00,,,0.00,,2013-01-15 08:22:00,
2013-01-15 02:32:00,8.0,5.0,-100.00,SW,225,7.0,9.0,86,0.00,,,0.00,,2013-01-15 08:32:00,
2013-01-15 02:42:00,8.0,5.0,-100.00,SW,235,7.0,9.0,87,0.00,,,0.00,,2013-01-15 08:42:00,
2013-01-15 02:52:00,9.0,5.0,-100.00,SW,225,3.0,7.0,87,0.00,,,0.00,,2013-01-15 08:52:00,
2013-01-15 03:02:00,8.0,5.0,-100.00,SW,225,6.0,6.0,87,0.00,,,0.00,,2013-01-15 09:02:00,
2013-01-15 03:12:00,8.0,5.0,-100.00,SW,215,7.0,9.0,87,0.00,,,0.00,,2013-01-15 09:12:00,
2013-01-15 03:22:00,8.0,5.0,-100.00,SW,215,7.0,9.0,87,0.00,,,0.00,,2013-01-15 09:22:00,
2013-01-15 03:33:00,8.0,5.0,-100.00,SW,230,6.0,8.0,87,0.00,,,0.00,,2013-01-15 09:33:00,
2013-01-15 03:42:00,8.0,5.0,-100.00,SW,235,6.0,7.0,87,0.00,,,0.00,,2013-01-15 09:42:00,
2013-01-15 03:52:00,8.0,5.0,-100.00,SW,230,6.0,7.0,87,0.00,,,0.00,,2013-01-15 09:52:00,
2013-01-15 04:02:00,7.0,5.0,-100.00,SW,225,5.0,6.0,87,0.00,,,0.00,,2013-01-15 10:02:00,
2013-01-15 04:12:00,7.0,5.0,-100.00,SW,225,4.0,7.0,87,0.00,,,0.00,,2013-01-15 10:12:00,
2013-01-15 04:22:00,8.0,5.0,-100.00,WSW,250,2.0,4.0,87,0.00,,,0.00,,2013-01-15 10:22:00,
2013-01-15 04:32:00,8.0,5.0,-100.00,SSW,210,4.0,4.0,87,0.00,,,0.00,,2013-01-15 10:32:00,
2013-01-15 04:42:00,6.0,3.0,-100.00,SSW,205,7.0,8.0,87,0.00,,,0.00,,2013-01-15 10:42:00,
2013-01-15 04:52:00,6.0,3.0,-100.00,SW,215,8.0,9.0,87,0.00,,,0.00,,2013-01-15 10:52:00,
2013-01-15 05:02:00,6.0,3.0,-100.00,SSW,210,7.0,9.0,87,0.00,,,0.00,,2013-01-15 11:02:00,
2013-01-15 05:12:00,6.0,3.0,-100.00,SW,215,6.0,7.0,88,0.00,,,0.00,,2013-01-15 11:12:00,
2013-01-15 05:22:00,6.0,3.0,-100.00,SSW,210,6.0,9.0,88,0.00,,,0.00,,2013-01-15 11:22:00,
2013-01-15 05:32:00,6.0,3.0,-100.00,SW,225,3.0,7.0,88,0.00,,,0.00,,2013-01-15 11:32:00,
2013-01-15 05:42:00,6.0,3.0,-100.00,SSW,200,4.0,6.0,88,0.00,,,0.00,,2013-01-15 11:42:00,
2013-01-15 05:52:00,6.0,3.0,-100.00,SSW,200,9.0,9.0,88,0.00,,,0.00,,2013-01-15 11:52:00,
2013-01-15 06:03:00,6.0,3.0,-100.00,SSW,195,8.0,9.0,89,0.00,,,0.00,,2013-01-15 12:03:00,
2013-01-15 06:12:00,7.0,5.0,-100.00,SSW,205,9.0,11.0,89,0.00,,,0.00,,2013-01-15 12:12:00,
2013-01-15 06:22:00,8.0,5.0,-100.00,SSW,205,11.0,12.0,89,0.00,,,0.00,,2013-01-15 12:22:00,
2013-01-15 06:33:00,8.0,5.0,-100.00,SSW,210,10.0,12.0,89,0.00,,,0.00,,2013-01-15 12:33:00,
2013-01-15 06:42:00,7.0,5.0,-100.00,SSW,205,11.0,12.0,89,0.00,,,0.00,,2013-01-15 12:42:00,
2013-01-15 06:53:00,7.0,5.0,-100.00,SSW,210,11.0,11.0,89,0.00,,,0.00,,2013-01-15 12:53:00,
2013-01-15 07:03:00,7.0,5.0,-100.00,SSW,210,10.0,11.0,90,0.00,,,0.00,,2013-01-15 13:03:00,
2013-01-15 07:12:00,8.0,5.0,-100.00,SSW,210,10.0,11.0,90,0.00,,,0.00,,2013-01-15 13:12:00,
2013-01-15 07:23:00,9.0,7.0,-100.00,SSW,205,10.0,12.0,90,0.00,,,0.00,,2013-01-15 13:23:00,
2013-01-15 07:33:00,9.0,7.0,-100.00,SSW,210,9.0,11.0,90,0.00,,,0.00,,2013-01-15 13:33:00,
2013-01-15 07:43:00,10.0,9.0,-100.00,SW,215,8.0,12.0,91,0.00,,,0.00,,2013-01-15 13:43:00,
2013-01-15 07:53:00,10.0,7.0,-100.00,SW,220,6.0,10.0,91,0.00,,,0.00,,2013-01-15 13:53:00,
2013-01-15 08:02:00,10.0,9.0,-100.00,SW,225,6.0,8.0,91,0.00,,,0.00,,2013-01-15 14:02:00,
2013-01-15 08:12:00,9.0,7.0,-100.00,SW,215,6.0,8.0,91,0.00,,,0.00,,2013-01-15 14:12:00,
2013-01-15 08:23:00,9.0,7.0,-100.00,SSW,210,4.0,7.0,91,0.00,,,0.00,,2013-01-15 14:23:00,
2013-01-15 08:33:00,10.0,9.0,-100.00,South,190,6.0,6.0,91,0.00,,,0.00,,2013-01-15 14:33:00,
2013-01-15 08:43:00,11.0,9.0,-100.00,SSW,195,7.0,7.0,91,0.00,,,0.00,,2013-01-15 14:43:00,
2013-01-15 08:53:00,10.0,9.0,-100.00,SSW,210,6.0,7.0,91,0.00,,,0.00,,2013-01-15 14:53:00,
2013-01-15 09:03:00,12.0,10.0,-100.00,SW,225,5.0,6.0,90,0.00,,,0.00,,2013-01-15 15:03:00,
2013-01-15 09:12:00,13.0,10.0,-100.00,SW,215,6.0,7.0,90,0.00,,,0.00,,2013-01-15 15:12:00,
2013-01-15 09:23:00,14.0,12.0,-100.00,SSW,210,4.0,6.0,89,0.00,,,0.00,,2013-01-15 15:23:00,
2013-01-15 09:33:00,13.0,10.0,-100.00,SSW,200,4.0,4.0,87,0.00,,,0.00,,2013-01-15 15:33:00,
2013-01-15 09:43:00,12.0,9.0,-100.00,South,185,6.0,6.0,87,0.00,,,0.00,,2013-01-15 15:43:00,
2013-01-15 09:52:00,12.0,9.0,-100.00,South,185,7.0,7.0,88,0.00,,,0.00,,2013-01-15 15:52:00,
2013-01-15 10:03:00,15.0,12.0,-100.00,SSW,205,8.0,11.0,88,0.00,,,0.00,,2013-01-15 16:03:00,
2013-01-15 10:12:00,17.0,14.0,-100.00,SSW,210,9.0,11.0,86,0.00,,,0.00,,2013-01-15 16:12:00,
2013-01-15 10:22:00,19.0,16.0,-100.00,SSW,210,8.0,10.0,84,0.00,,,0.00,,2013-01-15 16:22:00,
2013-01-15 10:33:00,20.0,16.0,-100.00,SW,215,9.0,11.0,82,0.00,,,0.00,,2013-01-15 16:33:00,
2013-01-15 10:42:00,21.0,16.0,-100.00,SSW,210,12.0,14.0,80,0.00,,,0.00,,2013-01-15 16:42:00,
2013-01-15 10:53:00,22.0,18.0,-100.00,SW,215,12.0,14.0,79,0.00,,,0.00,,2013-01-15 16:53:00,
2013-01-15 11:03:00,24.0,18.0,-100.00,SW,225,12.0,17.0,76,0.00,,,0.00,,2013-01-15 17:03:00,
2013-01-15 11:12:00,24.0,18.0,-100.00,SW,230,13.0,17.0,75,0.00,,,0.00,,2013-01-15 17:12:00,
2013-01-15 11:22:00,24.0,16.0,-100.00,WSW,240,14.0,18.0,68,0.00,,,0.00,,2013-01-15 17:22:00,
2013-01-15 11:33:00,24.0,14.0,-100.00,SW,230,16.0,19.0,66,0.00,,,0.00,,2013-01-15 17:33:00,
2013-01-15 11:42:00,25.0,14.0,-100.00,SW,230,17.0,19.0,65,0.00,,,0.00,,2013-01-15 17:42:00,
2013-01-15 11:53:00,25.0,14.0,-100.00,SW,230,14.0,19.0,62,0.00,,,0.00,,2013-01-15 17:53:00,
2013-01-15 12:03:00,25.0,12.0,-100.00,WSW,240,15.0,19.0,59,0.00,,,0.00,,2013-01-15 18:03:00,
2013-01-15 12:12:00,26.0,12.0,-100.00,WSW,240,16.0,20.0,58,0.00,,,0.00,,2013-01-15 18:12:00,
2013-01-15 12:23:00,26.0,14.0,-100.00,SW,230,13.0,18.0,58,0.00,,,0.00,,2013-01-15 18:23:00,
2013-01-15 12:33:00,27.0,14.0,-100.00,WSW,240,15.0,19.0,57,0.00,,,0.00,,2013-01-15 18:33:00,
2013-01-15 12:42:00,27.0,14.0,-100.00,SW,230,16.0,20.0,56,0.00,,,0.00,,2013-01-15 18:42:00,
2013-01-15 12:53:00,27.0,12.0,-100.00,SW,235,14.0,21.0,54,0.00,,,0.00,,2013-01-15 18:53:00,
2013-01-15 13:03:00,27.0,12.0,-100.00,SW,230,17.0,20.0,52,0.00,,,0.00,,2013-01-15 19:03:00,
2013-01-15 13:12:00,28.0,12.0,-100.00,SW,230,16.0,20.0,52,0.00,,,0.00,,2013-01-15 19:12:00,
2013-01-15 13:22:00,28.0,12.0,-100.00,SW,230,14.0,17.0,50,0.00,,,0.00,,2013-01-15 19:22:00,
2013-01-15 13:33:00,29.0,12.0,-100.00,SW,225,12.0,17.0,50,0.00,,,0.00,,2013-01-15 19:33:00,
2013-01-15 13:42:00,29.0,12.0,-100.00,SW,220,17.0,22.0,48,0.00,,,0.00,,2013-01-15 19:42:00,
2013-01-15 13:52:00,29.0,12.0,-100.00,SW,230,20.0,24.0,48,0.00,,,0.00,,2013-01-15 19:52:00,
2013-01-15 14:03:00,29.0,12.0,-100.00,SW,235,18.0,23.0,49,0.00,,,0.00,,2013-01-15 20:03:00,
2013-01-15 14:12:00,29.0,12.0,-100.00,SW,235,19.0,26.0,48,0.00,,,0.00,,2013-01-15 20:12:00,
2013-01-15 14:23:00,29.0,12.0,-100.00,SW,225,18.0,24.0,48,0.00,,,0.00,,2013-01-15 20:23:00,
2013-01-15 14:33:00,29.0,12.0,-100.00,SW,225,19.0,24.0,48,0.00,,,0.00,,2013-01-15 20:33:00,
2013-01-15 14:43:00,29.0,12.0,-100.00,SW,230,17.0,23.0,47,0.00,,,0.00,,2013-01-15 20:43:00,
2013-01-15 14:52:00,29.0,12.0,-100.00,SW,215,18.0,23.0,47,0.00,,,0.00,,2013-01-15 20:52:00,
2013-01-15 15:03:00,29.0,10.0,-100.00,SW,225,17.0,24.0,46,0.00,,,0.00,,2013-01-15 21:03:00,
2013-01-15 15:12:00,29.0,10.0,-100.00,SW,230,16.0,24.0,46,0.00,,,0.00,,2013-01-15 21:12:00,
2013-01-15 15:23:00,29.0,10.0,-100.00,SW,225,17.0,22.0,44,0.00,,,0.00,,2013-01-15 21:23:00,
2013-01-15 15:33:00,29.0,10.0,-100.00,WSW,240,17.0,22.0,44,0.00,,,0.00,,2013-01-15 21:33:00,
2013-01-15 15:43:00,29.0,10.0,-100.00,SW,230,16.0,19.0,44,0.00,,,0.00,,2013-01-15 21:43:00,
2013-01-15 15:52:00,29.0,10.0,-100.00,SW,235,15.0,22.0,45,0.00,,,0.00,,2013-01-15 21:52:00,
2013-01-15 16:03:00,29.0,10.0,-100.00,SW,235,14.0,19.0,45,0.00,,,0.00,,2013-01-15 22:03:00,
2013-01-15 16:12:00,29.0,10.0,-100.00,SW,235,15.0,19.0,45,0.00,,,0.00,,2013-01-15 22:12:00,
2013-01-15 16:23:00,29.0,10.0,-100.00,SW,235,13.0,17.0,45,0.00,,,0.00,,2013-01-15 22:23:00,
2013-01-15 16:33:00,28.0,10.0,-100.00,SW,230,12.0,19.0,45,0.00,,,0.00,,2013-01-15 22:33:00,
2013-01-15 16:43:00,28.0,10.0,-100.00,SW,235,11.0,14.0,46,0.00,,,0.00,,2013-01-15 22:43:00,
2013-01-15 16:52:00,28.0,10.0,-100.00,SW,235,11.0,13.0,47,0.00,,,0.00,,2013-01-15 22:52:00,
2013-01-15 17:02:00,27.0,10.0,-100.00,SW,230,10.0,12.0,48,0.00,,,0.00,,2013-01-15 23:02:00,
2013-01-15 17:12:00,26.0,10.0,-100.00,SW,230,10.0,12.0,49,0.00,,,0.00,,2013-01-15 23:12:00,
2013-01-15 17:22:00,25.0,10.0,-100.00,SW,235,10.0,12.0,51,0.00,,,0.00,,2013-01-15 23:22:00,
2013-01-15 17:32:00,24.0,9.0,-100.00,SW,235,9.0,12.0,52,0.00,,,0.00,,2013-01-15 23:32:00,
2013-01-15 17:42:00,23.0,9.0,-100.00,SW,235,9.0,11.0,54,0.00,,,0.00,,2013-01-15 23:42:00,
2013-01-15 17:53:00,21.0,9.0,-100.00,SSW,210,7.0,9.0,56,0.00,,,0.00,,2013-01-15 23:53:00,
2013-01-15 18:02:00,19.0,7.0,-100.00,SW,215,9.0,9.0,59,0.00,,,0.00,,2013-01-16 00:02:00,
2013-01-15 18:12:00,19.0,9.0,-100.00,SSW,210,9.0,10.0,62,0.00,,,0.00,,2013-01-16 00:12:00,
2013-01-15 18:22:00,19.0,9.0,-100.00,SSW,200,11.0,13.0,63,0.00,,,0.00,,2013-01-16 00:22:00,
2013-01-15 18:32:00,19.0,9.0,-100.00,SSW,210,9.0,12.0,65,0.00,,,0.00,,2013-01-16 00:32:00,
2013-01-15 18:43:00,18.0,9.0,-100.00,SSW,210,6.0,7.0,66,0.00,,,0.00,,2013-01-16 00:43:00,
2013-01-15 18:52:00,19.0,9.0,-100.00,SW,225,4.0,6.0,66,0.00,,,0.00,,2013-01-16 00:52:00,
2013-01-15 19:02:00,19.0,9.0,-100.00,SSW,205,6.0,7.0,66,0.00,,,0.00,,2013-01-16 01:02:00,
2013-01-15 19:12:00,18.0,9.0,-100.00,SSW,205,9.0,10.0,67,0.00,,,0.00,,2013-01-16 01:12:00,
2013-01-15 19:22:00,19.0,10.0,-100.00,SSW,200,12.0,14.0,69,0.00,,,0.00,,2013-01-16 01:22:00,
2013-01-15 19:33:00,20.0,12.0,-100.00,SSW,195,16.0,17.0,68,0.00,,,0.00,,2013-01-16 01:33:00,
2013-01-15 19:42:00,20.0,10.0,-100.00,SSW,195,16.0,17.0,66,0.00,,,0.00,,2013-01-16 01:42:00,
2013-01-15 19:52:00,20.0,10.0,-100.00,SSW,200,16.0,18.0,66,0.00,,,0.00,,2013-01-16 01:52:00,
2013-01-15 20:03:00,20.0,10.0,-100.00,SSW,195,16.0,17.0,66,0.00,,,0.00,,2013-01-16 02:03:00,
2013-01-15 20:12:00,19.0,10.0,-100.00,SSW,200,15.0,17.0,67,0.00,,,0.00,,2013-01-16 02:12:00,
2013-01-15 20:22:00,19.0,10.0,-100.00,SSW,200,16.0,17.0,68,0.00,,,0.00,,2013-01-16 02:22:00,
2013-01-15 20:32:00,19.0,10.0,-100.00,SSW,200,15.0,17.0,68,0.00,,,0.00,,2013-01-16 02:32:00,
2013-01-15 20:42:00,20.0,10.0,-100.00,SSW,200,17.0,19.0,68,0.00,,,0.00,,2013-01-16 02:42:00,
2013-01-15 20:52:00,20.0,10.0,-100.00,SSW,200,17.0,20.0,68,0.00,,,0.00,,2013-01-16 02:52:00,
2013-01-15 21:02:00,19.0,10.0,-100.00,SSW,200,17.0,19.0,68,0.00,,,0.00,,2013-01-16 03:02:00,
2013-01-15 21:12:00,19.0,10.0,-100.00,SSW,200,16.0,19.0,69,0.00,,,0.00,,2013-01-16 03:12:00,
2013-01-15 21:22:00,19.0,10.0,-100.00,SSW,210,16.0,19.0,69,0.00,,,0.00,,2013-01-16 03:22:00,
2013-01-15 21:32:00,19.0,10.0,-100.00,SSW,210,16.0,19.0,69,0.00,,,0.00,,2013-01-16 03:32:00,
2013-01-15 21:42:00,19.0,10.0,-100.00,SW,225,14.0,16.0,68,0.00,,,0.00,,2013-01-16 03:42:00,
2013-01-15 21:52:00,20.0,10.0,-100.00,SW,220,12.0,17.0,68,0.00,,,0.00,,2013-01-16 03:52:00,
2013-01-15 22:02:00,20.0,10.0,-100.00,SW,225,11.0,15.0,67,0.00,,,0.00,,2013-01-16 04:02:00,
2013-01-15 22:12:00,20.0,10.0,-100.00,SW,225,14.0,17.0,66,0.00,,,0.00,,2013-01-16 04:12:00,
2013-01-15 22:22:00,20.0,10.0,-100.00,SW,220,14.0,17.0,66,0.00,,,0.00,,2013-01-16 04:22:00,
2013-01-15 22:32:00,20.0,10.0,-100.00,SW,230,13.0,19.0,66,0.00,,,0.00,,2013-01-16 04:32:00,
2013-01-15 22:42:00,20.0,10.0,-100.00,SW,220,13.0,19.0,66,0.00,,,0.00,,2013-01-16 04:42:00,
2013-01-15 22:52:00,20.0,10.0,-100.00,SW,220,14.0,18.0,66,0.00,,,0.00,,2013-01-16 04:52:00,
2013-01-15 23:03:00,20.0,10.0,-100.00,SW,220,14.0,18.0,67,0.00,,,0.00,,2013-01-16 05:03:00,
2013-01-15 23:12:00,20.0,10.0,-100.00,SW,225,12.0,17.0,67,0.00,,,0.00,,2013-01-16 05:12:00,
2013-01-15 23:22:00,20.0,10.0,-100.00,WSW,245,11.0,15.0,67,0.00,,,0.00,,2013-01-16 05:22:00,
2013-01-15 23:32:00,21.0,12.0,-100.00,SW,220,15.0,17.0,67,0.00,,,0.00,,2013-01-16 05:32:00,
2013-01-15 23:42:00,21.0,12.0,-100.00,WSW,245,11.0,17.0,66,0.00,,,0.00,,2013-01-16 05:42:00,
2013-01-15 23:53:00,21.0,12.0,-100.00,SW,230,12.0,16.0,68,0.00,,,0.00,,2013-01-16 05:53:00,